FENGYUN 1C DEB, 31507

Orbit data source: Space-Track

FENGYUN 1C DEB, 31507 is space debris in SSO originally from a launch on Mon, 10 May 1999 UTC launched from the Taiyaun Space Center, China (TSC). Fengyun 1C debris stems from the Chinese weather satellite Fengyun-1C, which was intentionally destroyed by a Chinese anti-satellite missile in 2007. This event dramatically increased the amount of space debris, with thousands of trackable fragments posing hazards to satellites and human spaceflight. The Fengyun 1C debris cloud has become a focal point in discussions about space sustainability and the need for international regulations to prevent the creation of new debris.

Loading next visibility...
Identifier
31507, 1999-025BWW
Orbit
SSO
Country
Flag of CNCN / PRC
Related business
Manufacturer
Unknown
Mission
Spacecraft
Bus & Motor
Unknown
Mass
Unknown
Launch date (UTC)
1999-05-10 (27 years ago)
Launch vehicle
Unknown
Launch site
Taiyaun Space Center, China (TSC)
Object type
Payload
Rocket body
Debris
Shape & HBR
Unknown shape, 0.1 m
Radar Cross Section
Medium (>0.1 m² and <1 m²)

Expand to show TLE details & history
Last TLE update: 3 days ago

TLE from 3 days ago
0 FENGYUN 1C DEB
1 31507U 99025BWW 26167.32839700  .00001064  00000-0  24827-3 0  9992
2 31507  98.1710 200.0430 0114454 225.0943 149.6590 14.52910876  7124
Epoch: 2026-06-16T07:52Z
TLE epoch observation values (Epoch: 2026-06-16T07:52:53.500Z)
Latitude
15.22337°
Longitude
174.9906°
Altitude
788.756 km
Speed
7.424 km/s
True Right ascension
13h 11m 15s
True Declination
15° 08' 13"
Sunlit
Object was in daylight at epoch
Visualization orbit readout
Latitude
Unknown
Longitude
Unknown
Altitude
Unknown
Speed
Unknown
Apparent Right ascension
Unknown
Apparent Declination
Unknown
Sunlit
N/A
Visualization observer readout
Local Sidereal Time
10:30:55
Azimuth
Unknown
Elevation
Unknown
Doppler factor
Unknown
Orbital elements
Apogee altitude
794.41 km
Perigee altitude
632.082 km
Semi-major axis
7,091.383 km
Eccentricity
0.01145
Inclination
98.171°
RAAN
200.043°
Arg. of periapsis
225.0943°
True anomaly
150.31342°
Mean anomaly
149.659°
Eccentric anomaly
149.98702°
Mean motion
3.63452 °/min
Orbital period
99.05 mins
BSTAR
0.00024827
Loading maneuver chart data...
Computing Atmospheric mass density...

Documentation

Showing up to 5 results
|